Location: Chiroubles
(46.1812°N, 4.6660°E)
Time: 22:01:10
(UTC+00:00)

Explorer 7 - Pass Details

Date: 05 December 2020
Orbit: 484 x 678 km, 50.3° (Epoch: 24 January)

Event Time Altitude Azimuth Distance (km) Brightness Sun altitude
Exits shadow 05:09:34 40° 231° (SW) 820 7.4 -19.7°
Maximum altitude 05:09:57 41° 216° (SW) 802 7.4 -19.7°
Drops below altitude 10° 05:13:44 10° 145° (SE) 1,764 10.0 -19.0°
Sets 05:15:57 0° 138° (SE) 2,621 11.2 -18.7°
